EHI
0 0 0 0 0 0 0 0 0 0 0 0 0 0 0 0 0 0 0 0 0 0 1 6 12 13 9 5 3 3 1 0 0 0 0 0 0 0 0 0 0 0 1 2 3 3 2 1 0
0 0 0 0 0 0 0 0 0 0 0 0 0 0 0 0 0 0 0 0 0 0 1 5 11 14 10 5 3 3 3 1 0 0 0 1 1 1 0 1 1 1 1 3 4 4 4 2 1
0 0 0 0 0 0 0 0 0 0 0 0 0 0 0 0 0 0 0 0 0 0 2 6 11 14 11 6 3 4 4 3 2 1 1 1 2 2 1 2 2 2 3 3 4 6 6 5 3
0 0 0 0 0 0 0 0 0 0 0 0 0 0 0 0 0 0 0 0 0 1 3 7 11 12 10 5 3 4 5 4 3 2 1 1 2 2 2 3 3 3 3 4 5 6 6 4 2
0 0 0 0 0 0 0 0 0 0 0 0 0 0 0 0 1 1 0 0 0 1 3 6 9 10 8 4 2 2 4 3 2 2 1 1 1 2 2 3 3 4 4 5 6 6 6 4 2
0 0 0 0 0 0 0 0 0 0 0 0 0 0 0 0 1 1 0 0 0 1 3 5 7 8 6 3 1 1 3 3 3 2 1 0 0 1 1 2 3 5 6 7 7 7 6 5 4
0 0 0 0 0 0 0 0 0 0 0 0 0 0 0 0 1 1 0 0 0 1 2 3 3 4 4 2 1 1 2 3 3 3 2 0 0 0 0 1 3 5 6 8 8 8 7 6 6
0 0 0 0 0 0 0 0 0 0 0 0 0 0 0 0 0 0 0 0 0 1 2 2 1 1 2 1 0 0 1 2 2 2 1 0 0 0 0 1 2 3 5 8 9 9 8 6 6
0 0 0 0 0 0 0 0 0 0 0 0 0 0 0 0 0 0 0 0 0 0 1 1 0 0 0 0 0 0 0 1 1 1 0 0 0 0 0 0 1 1 4 7 9 9 7 5 4
0 0 0 0 0 0 0 0 0 0 0 0 0 0 0 0 0 0 0 0 0 0 0 0 0 0 0 0 1 1 1 1 1 2 1 1 1 0 0 0 0 0 2 5 7 7 5 3 2
0 0 0 0 0 0 0 0 0 0 0 0 0 0 0 0 0 0 0 0 0 0 0 0 0 0 0 1 2 3 3 3 3 3 3 3 3 3 3 2 1 0 1 3 5 5 4 3 2
0 0 0 0 0 0 0 0 0 0 0 0 0 0 0 0 0 0 0 0 0 0 0 0 0 0 1 3 5 5 4 5 4 3 3 4 5 6 5 4 2 2 2 3 4 5 4 3 2
0 0 0 0 0 0 0 0 0 0 0 0 0 0 0 0 0 0 0 0 0 0 0 0 0 0 1 3 5 6 5 4 3 2 2 3 4 5 4 4 3 3 3 3 4 4 4 2 1
0 0 0 0 0 0 0 0 0 0 0 0 0 0 0 0 0 0 0 0 0 0 0 0 0 0 0 1 3 4 5 3 1 0 1 2 3 3 3 3 3 3 3 2 2 3 3 2 2
0 0 0 0 0 0 0 0 0 0 0 0 0 0 0 0 0 0 0 0 0 0 0 0 0 0 0 0 0 2 2 1 0 0 0 1 2 2 3 3 3 3 3 1 0 1 2 2 1
0 0 0 0 0 0 0 0 0 0 0 0 0 0 0 0 0 0 0 0 0 0 0 0 0 0 0 0 0 0 0 0 0 0 0 0 1 1 1 2 2 2 2 1 0 0 1 1 0
0 0 0 0 0 0 0 0 0 0 0 0 0 0 0 0 0 0 0 0 0 0 0 0 0 0 0 0 0 0 0 0 0 0 0 0 0 0 0 1 1 1 1 0 0 0 0 0 0
0 0 0 0 0 0 0 0 0 0 0 0 0 0 0 0 0 0 0 0 0 0 0 0 0 0 0 0 0 0 0 0 0 0 0 0 0 0 0 0 0 0 0 0 0 0 0 0 0
0 0 0 0 0 0 0 0 0 0 0 0 0 0 0 0 0 0 0 0 0 0 0 0 0 0 0 0 0 0 0 0 0 0 0 0 0 0 0 0 0 0 0 0 0 0 0 0 0
0 0 0 0 0 0 0 0 0 0 0 0 0 0 0 0 0 0 0 0 0 0 0 0 0 0 0 0 0 0 0 0 0 0 0 0 0 0 0 0 0 0 0 0 0 0 0 0 0
0 0 0 0 0 0 0 0 0 0 0 0 0 0 0 0 0 0 0 0 0 0 0 0 0 0 0 0 0 0 0 0 0 0 0 0 0 0 0 0 0 0 0 0 0 0 0 0 0
0 0 0 0 0 0 0 0 0 0 0 0 0 0 0 0 0 0 0 0 0 0 0 0 0 0 0 0 0 0 0 0 0 0 0 0 0 0 0 0 0 0 0 0 0 0 0 0 0
0 0 0 0 0 0 0 0 0 0 0 0 0 0 0 0 0 0 0 0 0 0 0 0 0 0 0 0 0 0 0 0 0 0 0 0 0 0 0 0 0 0 0 0 0 0 0 0 0
0 0 0 0 0 0 0 0 0 0 0 0 0 0 0 0 0 0 0 0 0 0 0 0 0 0 0 0 0 0 0 0 0 0 0 0 0 0 0 0 0 0 0 0 0 0 0 0 0
0 0 0 0 0 0 0 0 0 0 0 0 0 0 0 0 0 0 0 0 0 0 0 0 0 0 0 0 0 0 0 0 0 0 0 0 0 0 0 0 0 0 0 0 0 0 0 0 0
0 0 0 0 0 0 0 0 0 0 0 0 0 0 0 0 0 0 0 0 0 0 0 0 0 0 0 0 0 0 0 0 0 0 0 0 0 0 0 0 0 0 0 0 0 0 0 0 0
0 0 0 0 0 0 0 0 0 0 0 0 0 0 0 0 0 0 0 0 0 0 0 0 0 0 0 0 0 0 0 0 0 0 0 0 0 0 0 0 0 0 0 0 0 0 0 0 0
0 0 0 0 0 0 0 0 0 0 0 0 0 0 0 0 0 0 0 0 0 0 0 0 0 0 0 0 0 0 0 0 0 0 0 0 0 0 0 0 0 0 0 0 0 0 0 0 0
0 0 0 0 0 0 0 0 0 0 0 0 0 0 0 0 0 0 0 0 0 0 0 0 0 0 0 0 0 0 0 0 0 0 0 0 0 0 0 0 0 0 0 0 0 0 0 0 0
0 0 0 0 0 0 0 0 0 0 0 0 0 0 0 0 0 0 0 0 0 0 0 0 0 0 0 0 0 0 0 0 0 0 0 0 0 0 0 0 0 0 0 0 0 0 0 0 0
Wind_Speed
5 3 2 2 4 4 7 4 3 3 2 0 0 1 1 1 2 3 5 3 2 1 3 4 3 4 5 5 5 5 6 6 6 6 7 8 8 9 9 9 9 10 10 10 11 12 12 12 12
3 1 2 2 5 8 6 4 5 3 2 2 1 1 1 1 3 4 3 3 2 1 3 4 3 4 5 4 5 5 6 6 6 6 7 7 8 8 9 9 9 9 9 10 11 11 12 11 12
1 1 2 3 6 8 5 3 3 2 2 1 1 0 1 1 3 3 4 3 0 2 3 3 3 4 5 4 5 5 5 6 6 6 6 6 7 8 8 8 9 9 9 10 10 11 11 11 12
2 2 2 6 9 6 4 2 2 3 2 1 1 2 2 4 4 4 4 2 1 3 3 4 3 4 4 4 4 5 5 6 5 5 6 6 6 7 8 8 9 9 9 10 10 10 11 11 11
1 3 6 8 9 5 2 1 2 3 2 1 1 1 2 3 5 5 4 2 1 2 2 3 3 3 4 4 4 4 5 5 5 5 5 5 6 7 7 8 9 9 9 10 10 10 10 10 10
3 3 7 10 9 6 3 2 2 3 2 1 1 1 2 3 5 5 3 1 1 1 1 3 3 3 4 4 4 4 4 4 5 5 5 5 6 6 7 8 8 9 9 9 10 10 10 10 10
3 4 7 8 7 6 3 2 3 3 3 1 1 2 1 2 5 4 2 1 1 1 1 1 2 3 3 3 3 3 4 4 4 4 5 5 6 6 7 8 8 8 8 9 9 10 10 10 10
2 3 6 7 8 6 3 2 1 2 1 1 2 2 0 4 4 2 1 2 1 1 1 1 1 2 2 3 3 3 3 3 3 4 4 4 5 5 6 7 7 8 8 9 9 10 10 10 10
2 5 7 6 6 3 3 3 1 1 1 0 2 4 5 3 2 1 1 1 1 1 1 1 1 0 1 2 3 3 3 3 3 4 4 3 4 5 5 6 7 8 8 9 9 10 9 9 9
2 5 5 2 2 2 3 2 1 2 2 2 2 2 3 2 1 0 0 0 1 1 1 1 0 0 1 1 2 2 2 2 2 3 3 3 3 3 3 6 7 8 8 8 9 9 8 5 5
1 3 2 0 1 1 2 1 1 3 4 4 4 3 2 1 1 1 1 2 2 2 1 1 1 1 1 1 1 1 1 1 2 2 3 2 3 2 3 3 4 5 6 5 6 5 4 3 3
2 1 1 0 2 0 1 2 2 4 4 4 4 2 1 2 1 2 2 2 2 2 2 2 2 1 1 1 1 1 1 1 1 1 2 2 2 2 3 2 3 3 3 3 3 3 4 4 4
3 2 1 1 1 1 0 2 3 4 4 4 2 1 2 2 2 2 3 3 3 3 3 3 2 1 1 1 1 1 1 1 1 1 1 2 2 2 2 2 2 2 2 3 3 3 4 4 4
2 2 2 2 2 2 2 3 3 4 3 2 2 2 3 3 3 3 3 3 3 4 4 3 2 2 1 1 1 1 2 1 1 1 1 2 2 2 2 2 2 2 2 3 3 4 4 3 3
2 2 2 1 1 1 3 5 5 3 2 3 3 3 3 3 3 3 4 4 4 3 3 3 3 2 1 1 1 1 1 2 2 1 2 2 2 2 2 2 2 2 2 3 3 4 3 3 4
2 3 3 1 1 1 5 8 1 1 3 4 4 4 4 4 4 4 4 4 4 4 3 3 2 2 2 1 1 1 1 2 1 1 2 2 2 2 2 2 2 2 2 3 3 4 4 3 3
2 4 4 2 0 2 5 7 2 1 4 5 5 5 4 5 5 5 4 4 4 4 3 2 2 1 1 1 0 1 1 1 1 1 1 2 2 3 3 2 2 3 2 2 3 4 4 4 4
3 4 4 4 1 3 6 9 5 3 5 6 5 4 4 4 5 5 5 4 4 3 3 2 1 1 1 0 0 1 1 1 1 1 1 2 2 2 2 2 3 3 3 2 3 4 4 4 4
3 4 6 5 2 5 8 11 10 6 6 7 6 5 5 5 4 4 4 4 3 3 3 2 2 1 0 0 1 1 1 1 1 1 1 2 2 2 3 2 3 3 3 3 4 4 5 4 4
3 6 6 4 2 5 8 12 10 8 8 7 7 6 5 4 3 4 5 5 4 3 3 2 2 2 1 1 1 1 1 1 1 1 1 1 2 2 2 3 3 3 3 4 4 4 3 3 3
3 5 6 6 5 4 8 9 6 4 5 5 5 4 3 3 3 4 4 4 4 4 4 3 3 2 2 1 1 1 1 1 1 0 0 1 1 2 2 3 3 3 4 4 5 5 5 4 3
5 3 5 5 5 3 3 8 4 4 4 4 4 3 3 3 3 3 4 4 4 4 4 3 3 3 2 1 1 2 2 2 2 1 1 1 1 1 2 3 3 3 3 4 4 4 5 6 5
3 3 3 4 5 5 3 7 6 2 5 5 4 3 3 3 3 3 4 4 4 4 4 3 3 2 2 1 1 2 2 2 1 1 2 2 1 1 2 3 3 3 3 4 4 5 5 5 5
2 1 1 2 3 6 4 7 7 2 5 5 4 3 3 3 3 3 4 3 4 4 3 3 2 2 2 2 1 1 2 2 1 2 2 2 1 1 1 2 3 3 3 4 5 5 6 5 6
1 2 3 3 4 5 1 6 8 3 4 4 4 3 2 2 2 3 3 4 4 4 4 3 2 2 2 2 2 2 2 3 3 3 3 2 2 2 2 2 3 3 3 4 4 5 6 6 6
2 3 3 5 6 5 3 8 5 2 3 3 3 3 2 2 2 3 3 3 4 4 4 4 3 2 2 2 2 2 2 2 2 2 2 2 2 2 3 3 3 3 3 4 4 4 5 5 6
3 3 2 3 4 7 7 7 7 3 3 3 3 3 3 3 3 3 3 3 3 4 4 4 3 3 3 2 2 2 2 2 2 2 3 2 2 2 3 3 4 4 4 4 4 4 5 5 5
2 2 3 4 5 8 8 8 6 4 4 4 4 4 4 4 3 4 3 3 3 3 4 4 4 3 3 3 2 2 2 2 2 2 3 3 3 3 3 3 3 4 4 4 5 4 5 5 5
3 3 4 4 4 6 8 6 1 4 4 5 5 4 4 4 4 3 3 3 3 3 4 4 4 4 3 3 3 2 2 2 2 2 3 3 3 3 3 4 4 4 4 5 5 5 5 6 6
4 5 6 5 6 6 8 8 1 3 4 5 6 5 4 4 4 4 3 3 3 3 4 4 4 4 3 3 3 2 2 2 2 3 3 3 3 3 3 4 4 4 4 4 5 6 6 6 6
Wind_Direction
328 317 263 230 215 224 232 212 204 173 168 100 7 265 234 309 332 50 53 36 9 151 155 151 125 116 112 106 99 98 99 100 100 110 110 111 114 112 109 106 104 102 99 98 98 97 92 91 89
321 283 212 220 231 225 222 210 204 195 139 117 161 226 193 98 22 34 31 7 340 156 154 151 123 122 118 114 107 107 105 104 102 104 111 112 116 116 113 109 106 102 101 99 98 96 94 92 91
238 270 216 207 226 237 217 171 188 160 162 187 165 295 315 35 37 19 6 337 294 145 146 129 113 125 123 122 119 113 111 108 106 104 107 111 115 118 118 113 108 104 100 98 96 96 94 93 93
210 177 206 227 224 231 248 183 153 163 162 175 214 154 111 46 7 3 355 349 137 137 140 123 105 118 122 124 127 126 122 117 112 110 106 115 121 122 119 113 109 106 102 100 99 97 96 95 94
223 205 211 224 229 219 222 240 197 205 180 137 201 200 126 76 17 11 9 19 107 130 135 130 103 107 115 121 127 130 127 125 119 115 113 116 121 123 120 113 111 112 109 106 104 102 100 97 96
187 209 224 227 220 210 210 230 209 217 187 152 191 230 108 57 20 10 12 25 81 107 126 131 110 94 104 113 122 122 121 118 118 118 115 119 113 116 118 115 113 114 115 113 108 106 104 101 98
218 215 237 237 224 217 207 208 222 217 196 154 284 241 139 43 15 3 18 40 82 105 110 110 142 132 112 108 112 121 120 116 113 114 111 111 109 110 119 119 116 114 113 113 110 108 104 102 98
262 216 226 228 230 223 179 178 222 245 220 21 311 265 327 1 359 2 48 68 79 83 87 84 129 145 150 143 110 98 113 121 121 108 102 104 114 121 122 128 120 117 114 109 110 108 104 100 96
245 226 230 226 228 211 174 189 175 305 208 62 351 345 2 5 9 53 65 55 52 24 16 42 79 117 137 148 139 134 113 109 126 120 106 128 149 144 136 122 114 114 113 109 107 107 104 103 98
230 228 234 258 275 199 173 210 209 211 220 247 285 354 21 20 13 70 133 251 250 272 312 331 330 182 172 155 151 164 164 149 146 143 147 155 151 142 133 116 110 110 109 108 103 103 110 116 115
195 230 202 269 349 181 184 208 277 246 252 269 280 296 339 336 306 280 268 260 253 251 279 318 307 225 180 169 155 150 161 159 152 144 153 160 149 145 139 133 126 124 125 122 115 117 121 119 111
168 193 235 351 23 290 228 217 241 272 290 328 312 299 269 267 276 292 297 306 302 284 291 312 321 286 210 177 167 160 153 157 147 139 144 147 144 152 148 141 139 141 138 130 130 125 120 119 116
211 201 181 119 84 68 87 246 266 277 303 319 336 314 278 285 292 309 317 321 320 311 312 319 318 308 266 194 175 165 169 159 143 140 145 139 144 147 155 150 134 133 135 138 136 133 131 125 116
138 162 205 251 247 253 244 268 260 272 313 300 303 310 305 297 297 308 315 320 324 319 313 312 310 302 282 226 187 176 164 146 134 145 134 145 148 147 156 149 143 139 147 145 143 139 136 130 121
134 171 213 228 243 235 255 256 247 273 280 281 283 299 312 316 308 299 305 304 307 309 313 315 311 311 302 265 199 170 141 136 135 144 150 139 141 153 146 153 146 146 148 148 145 138 133 129 123
186 215 234 167 263 240 245 257 243 246 257 271 283 288 295 305 309 312 314 307 306 302 302 308 316 323 319 317 210 146 133 139 132 142 160 152 157 153 151 157 151 151 152 150 149 148 139 134 129
194 246 257 248 245 272 244 265 289 268 260 267 275 281 287 299 311 317 319 313 307 301 297 301 309 320 325 320 283 135 136 129 122 133 163 161 171 157 155 155 148 151 151 152 150 153 150 143 133
262 260 262 262 332 262 246 259 267 263 261 264 269 274 280 290 304 315 320 317 311 303 296 291 294 317 336 353 47 134 124 113 103 116 144 152 166 163 158 151 153 152 149 154 150 146 150 145 133
288 264 275 286 316 283 260 267 270 264 262 265 267 265 268 281 303 325 330 330 324 321 308 302 290 292 305 96 191 190 168 157 139 152 142 144 149 155 160 162 163 161 157 157 152 147 150 147 142
268 272 279 284 300 283 284 275 270 258 253 258 260 259 267 287 313 333 344 344 336 322 311 296 293 282 264 242 219 215 185 190 189 188 152 128 150 157 163 169 171 174 164 157 154 154 155 149 165
271 275 288 293 304 255 292 271 247 246 249 260 263 271 282 281 297 320 332 337 339 335 325 311 293 284 287 266 172 133 138 142 147 151 151 154 142 161 161 167 171 178 170 169 171 171 168 167 172
277 297 283 280 280 280 307 289 267 259 256 264 268 268 278 290 300 315 328 332 332 328 322 318 315 296 294 271 196 184 199 212 218 208 200 179 151 166 180 172 169 171 172 175 180 183 182 175 180
300 327 282 266 259 271 240 264 278 267 271 273 266 269 281 291 302 319 326 325 329 331 329 327 326 322 318 291 221 211 214 228 230 195 197 177 154 173 199 180 177 176 180 182 182 186 190 186 186
315 289 250 220 234 252 235 245 277 247 270 284 270 270 277 292 309 324 335 338 340 344 343 336 337 338 341 336 276 225 218 207 196 197 210 198 172 191 208 191 187 188 187 190 190 190 198 196 191
318 280 274 248 235 254 212 245 263 294 290 275 274 271 290 294 305 317 326 335 341 346 345 338 336 338 341 341 318 256 232 219 210 211 215 213 196 209 213 208 202 200 198 194 193 191 201 204 196
229 243 255 277 280 286 237 249 266 315 308 304 290 280 298 311 313 314 316 320 324 331 336 336 327 325 327 323 313 287 251 234 229 228 225 224 217 218 214 217 210 206 204 195 194 193 199 208 204
214 222 282 270 276 272 259 267 276 266 288 279 281 287 288 294 296 302 306 307 316 323 327 324 319 315 316 314 307 281 258 246 239 233 230 226 228 224 216 222 216 208 204 199 195 198 199 203 208
281 196 191 222 265 269 267 263 268 270 271 270 273 272 279 288 294 298 294 299 312 318 321 321 315 307 305 307 302 295 275 259 251 240 235 235 229 218 217 224 224 213 208 201 199 203 203 202 207
185 194 223 231 259 268 277 272 237 261 267 266 268 273 278 284 292 294 300 305 314 323 325 326 326 317 309 305 296 295 288 279 264 253 248 245 238 222 214 220 223 215 216 213 205 207 203 207 208
232 226 207 231 238 243 270 276 85 272 293 287 286 289 285 289 299 299 302 314 323 327 328 324 323 318 308 298 290 287 283 276 266 265 266 257 247 232 218 217 226 218 216 217 213 209 207 208 210